Date String (YYYY-MM-DD hh:mm:ss) UTC,Instrument flags,Ambient pressure (hPa),Sample flow (lpm),Bypass flow (lpm),Sample temperature (°C),Ambient temperature (°C),ASC tube jacket temperature (°C),LED temperature (°C),Box temperature (°C),Sample RH (%),Span deviation,Mass concentration (μg/m³),Mass concentration (μg/m³),Mass concentration (μg/m³)
DateTimeUTC,F1_M11,P_M11,Q1_M11,Q2_M11,T1_M11,T2_M11,T3_M11,T4_M11,T5_M11,U1_M11,ZSPAN_M11,X0_M11,X2_M11,X1_M11
2022-12-06 22:00:00,,0820.4,5.01,0.00,22.7,21.3,00.0,31.6,24.4,09.8,0000.0,0001.59,0001.01,0000.74
2022-12-06 22:01:00,,0820.4,5.02,0.00,22.7,21.3,00.0,31.6,24.4,09.7,0000.0,0001.59,0001.00,0000.72
2022-12-06 22:02:00,,0820.4,5.00,0.00,22.7,21.3,00.0,31.6,24.3,09.6,0000.0,0001.67,0001.03,0000.74
2022-12-06 22:03:00,,0820.4,4.99,0.00,22.7,21.2,00.0,31.6,24.2,09.5,0000.0,0001.71,0001.05,0000.75
2022-12-06 22:04:00,,0820.5,4.99,0.00,22.6,21.2,00.0,31.6,24.2,09.4,0000.0,0001.67,0001.03,0000.74
2022-12-06 22:05:00,,0820.5,5.01,0.00,22.7,21.3,00.0,31.6,24.3,09.6,0000.0,0001.74,0001.02,0000.71
2022-12-06 22:06:00,,0820.6,5.01,0.00,22.6,21.3,00.0,31.6,24.3,09.7,0000.0,0001.65,0000.96,0000.68
2022-12-06 22:07:00,,0820.5,5.00,0.00,22.7,21.3,00.0,31.6,24.4,09.6,0000.0,0001.53,0000.92,0000.67
2022-12-06 22:08:00,,0820.6,5.00,0.00,22.7,21.3,00.0,31.6,24.3,09.5,0000.0,0001.47,0000.87,0000.63
2022-12-06 22:09:00,,0820.6,4.99,0.00,22.7,21.3,00.0,31.6,24.4,09.4,0000.0,0001.38,0000.81,0000.60
2022-12-06 22:10:00,,0820.6,5.00,0.00,22.7,21.3,00.0,31.6,24.4,09.7,0000.0,0001.23,0000.76,0000.59
2022-12-06 22:11:00,,0820.6,5.00,0.00,22.7,21.3,00.0,31.6,24.4,09.7,0000.0,0001.22,0000.74,0000.57
2022-12-06 22:12:00,,0820.6,5.01,0.00,22.7,21.2,00.0,31.6,24.3,09.7,0000.0,0001.17,0000.73,0000.56
2022-12-06 22:13:00,,0820.6,5.01,0.00,22.7,21.3,00.0,31.6,24.4,09.7,0000.0,0001.14,0000.71,0000.54
2022-12-06 22:14:00,,0820.6,5.00,0.00,22.7,21.3,00.0,31.6,24.3,09.7,0000.0,0001.15,0000.70,0000.51
2022-12-06 22:15:00,,0820.6,5.00,0.00,22.7,21.3,00.0,31.6,24.3,09.5,0000.0,0001.16,0000.69,0000.50
2022-12-06 22:16:00,,0820.6,5.00,0.00,22.7,21.3,00.0,31.6,24.3,09.6,0000.0,0001.18,0000.68,0000.50
2022-12-06 22:17:00,,0820.6,5.00,0.00,22.7,21.3,00.0,31.6,24.4,09.7,0000.0,0001.23,0000.71,0000.49
2022-12-06 22:18:00,,0820.7,5.00,0.00,22.7,21.3,00.0,31.6,24.4,09.6,0000.0,0001.27,0000.73,0000.49
2022-12-06 22:19:00,,0820.7,4.99,0.00,22.7,21.2,00.0,31.6,24.3,09.7,0000.0,0001.24,0000.73,0000.50
2022-12-06 22:20:00,,0820.8,4.99,0.00,22.7,21.2,00.0,31.6,24.3,09.8,0000.0,0001.21,0000.72,0000.50
2022-12-06 22:21:00,,0820.8,5.00,0.00,22.7,21.3,00.0,31.6,24.4,09.9,0000.0,0001.27,0000.73,0000.50
2022-12-06 22:22:00,,0820.7,5.01,0.00,22.7,21.3,00.0,31.6,24.4,09.8,0000.0,0001.27,0000.72,0000.49
2022-12-06 22:23:00,,0820.8,5.01,0.00,22.7,21.3,00.0,31.6,24.3,09.7,0000.0,0001.32,0000.74,0000.49
2022-12-06 22:24:00,,0820.7,5.00,0.00,22.6,21.2,00.0,31.6,24.3,09.8,0000.0,0001.35,0000.75,0000.49
2022-12-06 22:25:00,,0820.8,5.00,0.00,22.6,21.2,00.0,31.6,24.3,09.7,0000.0,0001.40,0000.76,0000.50
2022-12-06 22:26:00,,0820.9,4.99,0.00,22.7,21.2,00.0,31.6,24.3,09.8,0000.0,0001.46,0000.79,0000.51
2022-12-06 22:27:00,,0820.8,5.00,0.00,22.6,21.2,00.0,31.6,24.3,09.9,0000.0,0001.46,0000.81,0000.51
2022-12-06 22:28:00,,0820.8,4.99,0.00,22.6,21.2,00.0,31.6,24.3,09.6,0000.0,0001.51,0000.84,0000.52
2022-12-06 22:29:00,,0820.9,5.01,0.00,22.6,21.3,00.0,31.6,24.4,09.7,0000.0,0001.52,0000.83,0000.52
2022-12-06 22:30:00,,0820.9,5.00,0.00,22.6,21.2,00.0,31.6,24.3,09.8,0000.0,0001.56,0000.84,0000.52
2022-12-06 22:31:00,,0820.9,5.00,0.00,22.6,21.2,00.0,31.6,24.3,09.6,0000.0,0001.58,0000.85,0000.53
2022-12-06 22:32:00,,0820.9,5.00,0.00,22.6,21.2,00.0,31.6,24.3,09.7,0000.0,0002.19,0000.84,0000.53
2022-12-06 22:33:00,,0820.9,5.00,0.00,22.6,21.2,00.0,31.6,24.4,09.7,0000.0,0003.32,0000.84,0000.54
2022-12-06 22:34:00,,0820.9,5.00,0.00,22.6,21.2,00.0,31.6,24.3,09.7,0000.0,0003.30,0000.84,0000.55
2022-12-06 22:35:00,,0820.9,5.00,0.00,22.6,21.2,00.0,31.6,24.3,09.6,0000.0,0003.30,0000.83,0000.57
2022-12-06 22:36:00,,0820.9,5.00,0.00,22.6,21.2,00.0,31.6,24.3,09.7,0000.0,0003.30,0000.84,0000.59
2022-12-06 22:37:00,,0820.9,5.00,0.00,22.6,21.2,00.0,31.6,24.3,09.7,0000.0,0003.30,0000.84,0000.60
2022-12-06 22:38:00,,0821.0,5.00,0.00,22.6,21.2,00.0,31.6,24.3,09.7,0000.0,0003.22,0000.84,0000.62
2022-12-06 22:39:00,,0820.9,5.00,0.00,22.6,21.1,00.0,31.6,24.2,09.7,0000.0,0003.23,0000.85,0000.63
2022-12-06 22:40:00,,0820.9,4.99,0.00,22.6,21.1,00.0,31.6,24.3,09.7,0000.0,0003.22,0000.85,0000.64
2022-12-06 22:41:00,,0820.9,5.00,0.00,22.6,21.1,00.0,31.6,24.3,09.6,0000.0,0003.21,0000.85,0000.65
2022-12-06 22:42:00,,0821.0,5.00,0.00,22.6,21.1,00.0,31.6,24.2,09.7,0000.0,0003.55,0000.86,0000.65
2022-12-06 22:43:00,,0821.0,5.00,0.00,22.6,21.1,00.0,31.6,24.2,09.8,0000.0,0003.34,0000.88,0000.66
2022-12-06 22:44:00,,0821.0,5.00,0.00,22.6,21.1,00.0,31.6,24.2,09.8,0000.0,0002.23,0000.89,0000.65
2022-12-06 22:45:00,,0821.0,5.00,0.00,22.6,21.1,00.0,31.6,24.2,09.9,0000.0,0002.23,0000.89,0000.66
2022-12-06 22:46:00,,0821.0,5.00,0.00,22.6,21.1,00.0,31.6,24.2,10.0,0000.0,0002.16,0000.89,0000.67
2022-12-06 22:47:00,,0821.0,5.00,0.00,22.6,21.1,00.0,31.6,24.2,10.0,0000.0,0002.16,0000.89,0000.67
2022-12-06 22:48:00,,0821.0,5.00,0.00,22.5,21.1,00.0,31.5,24.2,10.0,0000.0,0002.18,0000.90,0000.66
2022-12-06 22:49:00,,0821.0,5.00,0.00,22.5,21.1,00.0,31.5,24.2,09.9,0000.0,0002.17,0000.89,0000.65
2022-12-06 22:50:00,,0821.0,5.00,0.00,22.5,21.1,00.0,31.5,24.1,09.9,0000.0,0002.07,0000.86,0000.65
2022-12-06 22:51:00,,0821.0,5.00,0.00,22.5,21.0,00.0,31.5,24.1,10.0,0000.0,0002.03,0000.84,0000.64
2022-12-06 22:52:00,,0821.0,5.00,0.00,22.5,21.0,00.0,31.5,24.1,10.0,0000.0,0002.01,0000.84,0000.63
2022-12-06 22:53:00,,0821.0,5.00,0.00,22.5,21.0,00.0,31.5,24.2,10.0,0000.0,0001.61,0000.83,0000.61
2022-12-06 22:54:00,,0821.0,5.00,0.00,22.5,21.0,00.0,31.5,24.1,10.0,0000.0,0001.24,0000.81,0000.61
2022-12-06 22:55:00,,0821.0,5.00,0.00,22.5,21.0,00.0,31.5,24.1,10.0,0000.0,0001.27,0000.82,0000.61
2022-12-06 22:56:00,,0821.0,5.00,0.00,22.5,21.0,00.0,31.5,24.1,09.9,0000.0,0001.36,0000.85,0000.61
2022-12-06 22:57:00,,0821.0,4.99,0.00,22.5,21.0,00.0,31.5,24.2,10.0,0000.0,0001.34,0000.83,0000.59
2022-12-06 22:58:00,,0821.0,5.00,0.00,22.4,20.9,00.0,31.5,24.1,10.0,0000.0,0001.29,0000.82,0000.59
2022-12-06 22:59:00,,0821.1,5.00,0.00,22.4,20.9,00.0,31.5,24.0,10.1,0000.0,0001.60,0000.80,0000.58
